Regional Weather Roundup
Issued by NWS

Home | Current Version | Previous Version | Text Only | Print | Product List | Glossary Off
Versions: 1 2 3 4 5 6 7 8 9 10 11 12 13 14 15 16 17 18 19 20 21 22 23 24 25 26 27 28 29 30 31 32 33 34 35 36 37 38 39 40 41 42 43 44 45 46 47 48 49 50

000
ASUS43 KBIS 162220
RWRND

NORTH DAKOTA REGIONAL WEATHER ROUNDUP
NATIONAL WEATHER SERVICE BISMARCK ND
500 PM CDT WED APR 16 2014

NOTE: "FAIR" INDICATES FEW OR NO CLOUDS BELOW 12,000 FEET WITH NO
SIGNIFICANT WEATHER AND/OR OBSTRUCTIONS TO VISIBILITY.


NDZ001>003-009>011-017-162300-
NORTHWEST NORTH DAKOTA

CITY           SKY/WX    TMP DP  RH WIND       PRES   REMARKS
WILLISTON      CLOUDY    29  23  78 E14       30.21R WCI  18
MINOT          CLOUDY    33  19  56 NE12      30.21R
MINOT AFB      CLOUDY    33  19  57 NE10      30.21S
$$

NDZ018>021-031>035-040>046-162300-
SOUTHWEST NORTH DAKOTA

CITY           SKY/WX    TMP DP  RH WIND       PRES   REMARKS
BISMARCK       CLOUDY    36  17  46 NE15G21   30.16R
DICKINSON      CLOUDY    29  21  72 NE9       30.11R
GARRISON         N/A     30  20  66 NE8       30.19R
HETTINGER ARPT CLOUDY    32  22  66 NE10      30.10R
$$

NDZ004>008-012>016-024-026-027-054-162300-
NORTHEAST NORTH DAKOTA

CITY           SKY/WX    TMP DP  RH WIND       PRES   REMARKS
GRAND FORKS    MOSUNNY   41  15  35 NE22G29   30.14R
GRND FRKS AFB  SUNNY     40  11  30 NE21      30.18R
DEVILS LAKE    SUNNY     37  10  32 NE18G25   30.19R
$$

NDZ022-023-025-028>030-036>039-047>053-162300-
SOUTHEAST NORTH DAKOTA

CITY           SKY/WX    TMP DP  RH WIND       PRES   REMARKS
FARGO          CLOUDY    37  24  59 NE16      30.12R
JAMESTOWN      PTSUNNY   39  18  42 NE16G25   30.12R
$$




USA.gov is the U.S. government's official web portal to all federal, state and local government web resources and services.